Погода в Хараре

Зимбабве     17°49′45″S   31°03′07″E
темп.,
°C
ветер,
м/с
пор.,
м/с
влажн.,
%
обл.,
%
осадки,
мм/ч
давл.,
гПа
погр.,
м
25 января, вт
вт2523:00+17ю61487100 0.0 10131005
02:00+17ю61588100 0.0 10101115
05:00+17ю71591100 0.1 1009995
08:00+16ююз71796100 5.2 10091110
11:00+17ю71696100 5.1 10081102
14:00+17ю81897100 10.8 10051458
17:00+17ююв81696100 2.9 10051189
20:00+17ююв71694100 3.0 10061140
26 января, ср
ср2623:00+17ююв61596100 0.5 10071167
02:00+17юв61297100 2.6 1005910
05:00+16в41196100 0.9 1006793
08:00+16в51197100 2.8 1009933
11:00+16в51097100 1.1 1008762
14:00+16всв4898100 2.0 1008656
17:00+17всв3698100 0.1 1008569
20:00+16всв3698100 0.2 1010479
27 января, чт
чт2723:00+16всв379899 0.1 1011419
02:00+16св31098100 0.1 1010576
05:00+16св4998100 0.1 1010614
08:00+17св499471 0.3 1012574
11:00+22с567240 0.7 10101051
14:00+21с458167 2.4 1009926
17:00+21ссв248274 0.8 1007415
20:00+18св3793100 2.8 1011242
28 января, пт
пт2823:00+17ссв3797100 0.6 1011210
02:00+16св269886 0.6 1010185
05:00+16св279899 0.0 1011205
08:00+18св4895100 0.0 1012441
11:00+20ссв4682100 0.3 1010720
14:00+21с458192 2.5 1008829
17:00+21с348556 2.6 1007689
20:00+18ссв2395100 5.5 101071
29 января, сб
сб2923:00+17св389491 1.8 1011215
02:00+17св499696 2.1 1009399
05:00+17св4896100 0.0 1010467
08:00+18св4793100 0.1 1011435
11:00+21всв4586100 2.1 1010820
14:00+19всв359196 4.1 1009551
17:00+19всв3692100 1.3 1009463
20:00+17в4109691 2.3 1011477